Location: SAPM � Hemmingford
(45.0500°N, 73.5833°W)
Time: 05:29:24
(UTC-04:00)

Daily predictions for brighter satellites

Satellite Brightness Start Highest point End
(mag) Time Altitude Azimuth Time Altitude Azimuth Time Altitude Azimuth
Cosmos 1125 Rocket 3.9 00:00:48 10° NNW 00:05:28 62° NNE 00:05:28 62° NNE
Cosmos 2219 Rocket 4.4 00:03:15 10° W 00:07:30 22° NW 00:11:47 10° N
ATLAS 2AS CENTAUR R/B 2.9 00:08:09 69° SSE 00:08:50 73° ESE 00:16:56 10° NE
CZ-2C R/B 3.5 00:20:41 54° N 00:20:41 54° N 00:24:34 10° N
Cosmos 2184 Rocket 3.9 00:14:38 10° N 00:21:03 86° ENE 00:21:03 86° ENE
Cosmos 2327 Rocket 4.4 00:16:55 10° N 00:22:47 81° NNE 00:22:47 81° NNE
Terra 4.3 00:23:55 12° W 00:23:55 12° W 00:25:38 10° WNW
Cosmos 540 Rocket 4.2 00:32:46 49° NNE 00:32:46 49° NNE 00:36:32 10° NNE
ATLAS 3B R/B 2.5 00:28:27 10° NW 00:35:08 82° W 00:35:08 82° W
Cosmos 1607 4.1 00:32:46 10° NW 00:38:30 66° W 00:38:30 66° W
Cosmos 1603 4.0 00:40:43 64° NE 00:40:43 64° NE 00:45:35 10° NNE
Cosmos 2369 Rocket 2.5 00:35:21 10° NNW 00:40:34 60° NE 00:40:34 60° NE
ATLAS CENTAUR R/B 3.3 00:42:33 27° NNW 00:42:33 27° NNW 00:45:22 10° NNE
Cosmos 1610 Rocket 4.4 00:39:18 10° N 00:45:36 86° NW 00:45:36 86° NW
Cosmos 1943 Rocket 3.1 00:43:06 10° NNW 00:48:26 40° NE 00:49:00 39° ENE
Cosmos 2341 Rocket 4.2 00:43:04 10° N 00:49:13 58° ENE 00:49:17 58° E
Cosmos 2074 Rocket 4.3 00:44:15 10° NNW 00:50:02 55° W 00:50:02 55° W
Cosmos 1238 Rocket 4.0 00:53:01 62° NNE 00:53:01 62° NNE 00:58:07 10° N
USA 238 DEB 3.6 00:52:33 10° NW 00:59:39 80° SW 00:59:41 80° SW
USA 238 3.6 00:52:39 10° NW 00:59:45 80° SW 00:59:49 80° SW
Cosmos 44 Rocket 4.3 00:55:36 10° NNW 00:59:18 41° NNE 00:59:18 41° NNE
Cosmos 2154 Rocket 3.9 00:54:15 10° N 01:00:21 84° NNW 01:00:21 84° NNW
CZ-4B R/B 4.4 01:03:46 16° N 01:03:46 16° N 01:04:31 10° N
SL-16 R/B 3.8 01:04:06 24° WNW 01:05:45 27° NW 01:10:35 10° N
USA 215 4.3 01:08:48 10° ENE 01:13:16 31° ESE 01:13:16 31° ESE
Meteor 1-23 Rocket 4.3 01:19:45 71° NNE 01:19:45 71° NNE 01:24:43 10° N
CZ-2C R/B 3.7 01:20:51 10° N 01:25:50 36° WNW 01:25:58 36° WNW
CENTAUR R/B 4.2 01:24:18 10° NNW 01:31:23 39° NE 01:39:02 10° ESE
NOSS 3-2 (C) 4.0 01:24:06 10° NW 01:31:34 75° NE 01:34:43 41° SE
Cosmos 2366 rocket 4.0 01:39:29 10° N 01:45:49 72° E 01:46:20 68° ESE
Cosmos 2218 Rocket 3.8 01:39:58 10° N 01:46:14 81° E 01:46:29 79° ESE
Cosmos 2181 Rocket 4.0 01:46:45 72° W 01:46:59 73° W 01:53:28 10° N
Cosmos 2228 4.1 01:43:47 10° N 01:46:51 43° N 01:46:51 43° N
USA 267 4.3 01:42:33 10° E 01:48:40 44° NNE 01:54:48 10° NW
Cosmos 864 Rocket 4.5 01:46:24 10° N 01:52:46 77° E 01:53:23 70° SE
COSMOS 2455 3.1 01:47:01 10° NNW 01:53:01 64° NE 01:54:23 50° ESE
SL-8 Rocket 3.9 01:50:01 10° NNW 01:56:08 73° W 01:56:08 73° W
Cosmos 1943 3.6 01:58:32 50° WNW 01:58:41 50° WNW 02:04:12 10° NNE
NOSS 3-4 (A) 3.4 01:59:15 71° SE 01:59:26 72° ESE 02:05:56 10° NE
NOSS 3-4 (C) 3.4 01:59:22 71° SE 01:59:33 71° ESE 02:06:02 10° NE
SL-16 R/B 4.3 01:55:05 10° ESE 02:00:08 27° ENE 02:05:12 10° N
ATLAS 2AS CENTAUR R/B 4.1 01:55:31 19° W 02:00:33 38° NW 02:08:04 10° NNE
Cosmos 1538 Rocket 4.4 02:02:30 55° NW 02:02:30 55° NW 02:07:12 10° NNE
H-2A R/B 4.1 02:04:19 10° N 02:06:28 28° NNW 02:06:28 28° NNW
SL-08 R/B 4.3 02:08:24 38° E 02:09:08 41° ENE 02:13:37 10° N
Cosmos 724 4.2 02:04:14 10° NW 02:10:07 76° W 02:10:07 76° W
Cosmos 923 Rocket 4.0 02:10:36 78° ENE 02:10:36 78° ENE 02:15:44 10° NNE
NOSS 3-2 (A) 4.0 02:03:07 10° NW 02:10:30 60° WSW 02:11:09 58° SW
CZ-2D R/B 4.2 02:09:35 10° NE 02:13:05 18° E 02:14:58 15° ESE
Meteor 1-4 Rocket 4.2 02:12:19 10° N 02:14:56 36° NNE 02:14:56 36° NNE
Cosmos 1809 Rocket 4.3 02:13:26 10° NNW 02:19:30 68° W 02:19:43 67° WSW
Cosmos 292 Rocket 4.4 02:19:57 48° NW 02:19:57 48° NW 02:24:15 10° NNE
Cosmos 2369 Rocket 4.1 02:20:22 10° NW 02:22:21 17° WNW 02:22:21 17° WNW
Cosmos 773 Rocket 4.4 02:25:09 50° WNW 02:25:09 50° WNW 02:30:10 10° NNE
BREEZE M DEB (TANK) 4.4 02:06:11 10° WNW 02:27:36 52° SW 02:28:58 48° SSW
Cosmos 1943 Rocket 3.4 02:27:02 10° NW 02:30:31 29° WNW 02:30:31 29° WNW
Cosmos 1812 Rocket 3.8 02:30:13 10° N 02:34:06 68° N 02:34:06 68° N
PSLV R/B 4.3 02:31:38 10° N 02:35:36 45° NW 02:35:36 45° NW
Cosmos 1271 Rocket 4.1 02:33:02 10° N 02:36:29 33° ENE 02:36:34 33° ENE
Nadezhda 3 Rocket 4.0 02:35:16 54° SSE 02:36:45 76° E 02:43:07 10° N
Cosmos 1805 4.0 02:38:31 10° N 02:42:14 48° ENE 02:42:14 48° ENE
Cosmos 2112 Rocket 3.9 02:45:01 72° WSW 02:45:25 78° WNW 02:50:43 10° NNE
Helios 1A Rocket 4.0 02:43:23 10° N 02:46:29 35° NW 02:46:29 35° NW
Aureole 1 Rocket 3.4 02:49:14 57° WNW 02:49:14 57° WNW 02:53:04 10° NNE
Meteor 2-8 Rocket 4.5 02:47:57 48° SSE 02:49:43 75° E 02:55:52 10° NNE
Lacrosse 5 rocket 1.9 02:52:20 55° ESE 02:52:20 55° ESE 02:56:45 10° NE
AQUA 3.7 02:50:49 10° NNE 02:55:37 77° ESE 02:56:10 67° SSE
UNK 4.3 02:56:04 35° SE 02:57:45 56° ENE 03:02:15 10° N
USA 215 3.3 02:51:29 10° NE 02:58:02 77° NW 03:00:37 40° WSW
Cosmos 1624 Rocket 3.9 02:53:16 10° NNW 02:58:30 90° WNW 02:59:55 50° SSE
Cosmos 1842 3.4 02:59:23 70° NNE 02:59:23 70° NNE 03:02:52 10° N
Cosmos 1626 Rocket 4.4 03:02:27 38° WNW 03:02:27 38° WNW 03:06:10 10° N
Cosmos 1766 4.3 02:59:17 10° NNW 03:02:04 37° NW 03:02:04 37° NW
COSMOS 2406 3.2 03:02:16 55° SW 03:03:33 75° WNW 03:09:19 10° NNE
Cosmos 1656 Rocket 4.3 03:03:16 10° NW 03:07:22 35° W 03:07:22 35° W
IRS-P3 4.2 03:04:00 10° N 03:09:17 63° WNW 03:10:22 51° WSW
Cosmos 2098 Rocket 4.2 03:08:10 10° NNE 03:10:35 23° ENE 03:11:13 21° E
Cosmos 1825 Rocket 3.4 03:11:55 68° S 03:12:28 88° E 03:16:53 10° N
Cosmos 2056 Rocket 3.4 03:07:10 10° NNW 03:12:30 74° WSW 03:14:02 46° S
NOSS 2-2 (E) 3.4 03:12:11 66° SSE 03:12:35 73° SE 03:17:23 10° NE
Spot 4 Rocket 4.2 03:08:28 10° NNE 03:13:38 69° ESE 03:15:25 40° S
ADEOS Rocket 3.4 03:08:41 10° NNE 03:14:46 64° ESE 03:18:33 27° S
Cosmos 389 Rocket 3.8 03:12:45 10° N 03:16:11 38° ENE 03:17:43 25° SE
Cosmos 1680 Rocket 4.3 03:16:50 33° W 03:17:54 37° WNW 03:22:46 10° N
Cosmos 1821 Rocket 3.9 03:12:26 10° NNW 03:18:31 70° W 03:20:58 38° SSW
USA 32 4.0 03:17:06 39° S 03:19:05 79° E 03:24:21 10° N
CBERS-1 4.1 03:14:31 10° N 03:19:33 59° WNW 03:20:41 47° WSW
Cosmos 1707 4.4 03:18:32 21° SE 03:20:16 30° E 03:23:40 10° NNE
RESURS DK-1 3.3 03:21:41 34° WNW 03:22:00 35° NW 03:25:49 10° NNE
CENTAUR R/B 3.0 03:14:54 10° NW 03:22:44 72° WSW 03:31:06 10° SSE
USA 267 3.1 03:24:51 10° SE 03:31:24 80° SW 03:37:59 10° NW
Resurs 1-4 Rocket 2.0 03:27:36 10° NNE 03:32:54 87° ESE 03:35:17 34° SSW
Cosmos 1470 2.9 03:29:01 10° N 03:32:55 70° E 03:34:35 32° SSE
SL-27 R/B 3.3 03:33:10 37° WNW 03:33:10 37° WNW 03:36:30 10° N
Cosmos 1934 Rocket 4.0 03:28:44 10° NNW 03:35:00 68° W 03:38:35 27° S
IRS-1D 3.5 03:31:54 10° NNE 03:37:10 85° WNW 03:39:35 34° SSW
Cosmos 1544 4.4 03:34:32 10° NNW 03:36:56 27° WNW 03:36:56 27° WNW
COSMOS 2455 4.1 03:33:49 10° NW 03:37:27 23° W 03:37:27 23° W
Cosmos 1605 Rocket 3.9 03:33:08 10° N 03:39:23 88° W 03:44:26 16° S
Okean O Rocket 4.3 03:37:51 10° NE 03:40:24 15° E 03:42:54 10° SE
ARIANE 5 R/B 2.5 03:37:00 10° NNE 03:42:16 82° WNW 03:44:46 32° SSW
SL-16 R/B 2.6 03:39:58 26° S 03:43:23 57° WSW 03:49:28 10° NNW
ADEOS 3.5 03:38:08 10° NNE 03:43:23 79° WNW 03:45:53 32° SSW
Cosmos 1452 Rocket 3.4 03:41:57 10° NNW 03:47:15 87° WSW 03:52:30 10° SSE
NOSS 2-2 (D) 3.7 03:47:55 39° WSW 03:49:20 63° NW 03:54:08 10° NNE
Cosmos 1953 2.9 03:45:50 10° NNW 03:49:33 37° W 03:49:46 37° W
USA 161 2.5 03:48:07 21° SE 03:49:45 46° ENE 03:52:27 10° N
UNKNOWN OBJECT B 3.1 03:46:41 10° NNE 03:50:42 68° ESE 03:52:51 26° S
Cosmos-2242 2.9 03:48:05 10° NNW 03:52:29 77° W 03:55:11 23° S
Cosmos 1697 Rocket 3.6 03:48:05 10° NNW 03:53:34 51° ENE 03:59:01 10° SE
CZ-2D R/B 2.1 03:48:23 10° N 03:53:38 65° WNW 03:56:18 29° SW
Cosmos 1733 3.1 03:51:12 10° NNW 03:54:58 63° W 03:56:19 36° SSW
Abrixas 3.4 03:54:21 26° NW 03:55:29 41° N 03:58:11 10° E
MOS 1 Rocket 3.9 03:52:17 10° NNE 03:56:32 49° E 04:00:30 13° S
Cosmos 921 Rocket 3.9 03:54:04 10° NW 03:58:02 31° W 03:58:27 30° WSW
Cosmos 1420 Rocket 4.1 03:55:42 10° NNW 04:01:03 82° ENE 04:06:21 10° SSE
Cosmos 1842 Rocket 4.0 04:00:12 10° N 04:04:36 64° E 04:08:59 10° SSE
Cosmos 2278 3.6 03:59:48 10° NNW 04:05:30 68° WSW 04:11:09 10° SSE
MOZ.5/SAFIR/RUBIN 5/SL-8 3.7 04:01:45 11° S 04:06:18 75° WSW 04:11:01 10° NNW
NOSS 2-2 (C) 4.2 04:05:48 26° WSW 04:07:48 45° NW 04:12:30 10° NNE
Cosmos 1758 Rocket 4.3 04:06:30 27° WSW 04:07:53 34° WNW 04:11:52 10° N
Cosmos 839 Rocket 4.4 04:02:30 10° NW 04:08:36 50° WSW 04:15:45 10° S
EXPRESS MD2 3.4 04:05:33 10° WNW 04:11:45 70° SSW 04:14:53 10° SE
COSMOS 2487 2.4 04:10:22 32° SW 04:11:53 69° WNW 04:15:27 10° NNE
Cosmos 2221 4.4 04:08:12 10° N 04:12:02 31° ENE 04:15:50 10° SE
Cosmos 1271 Rocket 4.5 04:09:47 10° NW 04:11:44 16° WNW 04:11:44 16° WNW
Cosmos 2100 Rocket 4.2 04:07:08 10° N 04:13:22 75° E 04:19:30 10° SSE
Cosmos 2369 3.7 04:08:32 10° NNW 04:14:11 60° WSW 04:19:47 10° S
Cosmos 2173 Rocket 4.3 04:09:25 10° N 04:15:44 72° E 04:21:54 10° SSE
CZ-3A R/B 3.0 04:15:14 10° N 04:15:46 11° N 04:16:26 10° NNE
Cosmos 1818 4.1 04:14:38 21° WSW 04:18:00 47° NW 04:23:16 10° NNE
Cosmos 1656 3.5 04:12:36 10° NNW 04:18:02 78° WSW 04:23:27 10° SSE
CZ-2D R/B 3.3 04:15:03 10° N 04:19:06 69° WNW 04:21:47 20° SSW
Meteor 2-15 4.5 04:20:54 14° SSW 04:26:14 65° WNW 04:32:21 10° N
Cosmos 1833 Rocket 2.8 04:21:59 13° SSW 04:26:56 78° ESE 04:32:34 10° NNE
Cosmos 1980 Rocket 2.9 04:23:03 10° NNW 04:28:42 58° ENE 04:34:16 10° SE
Cosmos 1269 Rocket 4.1 04:23:54 12° SSW 04:28:50 79° ESE 04:34:08 10° NNE
GEOS 3 Rocket 3.9 04:24:41 10° NNE 04:29:53 61° NW 04:34:03 16° WSW
Lacrosse 5 rocket 2.8 04:28:02 14° W 04:31:41 35° NNW 04:35:57 10° NE
Cosmos 2082 Rocket 2.2 04:27:14 14° SSW 04:32:16 88° WNW 04:38:00 10° NNE
DNEPR-1 R/B 4.5 04:28:52 10° WNW 04:32:22 25° WSW 04:36:03 10° S
ADEOS II 2.9 04:28:16 10° NNE 04:33:24 51° E 04:38:30 10° S
USA 215 4.4 04:34:37 10° NE 04:40:31 37° NNW 04:46:25 10° W
CZ-4B R/B 4.0 04:35:59 10° NNE 04:41:12 50° E 04:46:20 10° S
Meteor 2-5 Rocket 4.0 04:37:49 12° SSW 04:43:06 53° WNW 04:48:51 10° N
Cosmos 2061 Rocket 4.0 04:41:08 10° NNW 04:47:21 73° W 04:53:29 10° S
Landsat 4 4.0 04:43:48 10° S 04:47:22 44° W 04:50:59 10° NNW
Cosmos 389 Rocket 4.4 04:48:48 10° WNW 04:50:41 14° W 04:51:42 12° WSW
SL-16 R/B 4.1 04:45:47 10° NNW 04:50:57 34° NE 04:56:06 10° ESE
Cosmos 2098 Rocket 4.3 04:50:57 10° WNW 04:51:44 11° W 04:51:55 11° W
Cosmos 1378 4.1 04:49:57 13° SW 04:52:46 30° WNW 04:56:07 10° NNW
Cosmos 158 Rocket 4.0 04:48:33 10° SSW 04:53:35 71° WNW 04:58:47 10° NNE
Cosmos 2016 Rocket 4.0 04:47:50 10° N 04:54:07 82° W 05:00:27 10° S
Cosmos 1707 4.3 04:53:47 12° WSW 04:56:14 20° WNW 04:59:11 10° NNW
Meteor 2-1 Rocket 4.3 04:51:22 10° NNW 04:56:59 67° W 05:02:42 10° S
Cosmos 2123 Rocket 4.4 04:51:22 10° S 04:57:37 71° E 05:03:53 10° NNE
CZ-4B R/B 3.1 04:55:23 10° NNE 04:59:45 85° WNW 05:04:15 10° SSW
ADEOS Rocket 4.3 04:55:08 10° N 04:59:55 25° WNW 05:05:04 10° WSW
Okean 3 Rocket 3.6 04:58:58 10° S 05:03:22 85° WNW 05:07:51 10° N
Cosmos 1908 3.6 05:03:14 10° N 05:07:05 69° E 05:10:57 10° SSE
In-Cosmos 22 4.1 05:05:17 10° SSW 05:10:33 72° WNW 05:15:52 10° N
Cosmos 1076 Rocket 3.6 05:07:20 10° S 05:11:34 80° E 05:15:50 10° N
Resurs 1-4 Rocket 3.9 05:09:07 10° NNW 05:12:01 15° WNW 05:14:55 10° W
CENTAUR R/B 4.3 05:07:40 10° WNW 05:12:26 17° WSW 05:17:20 10° SW
Cosmos 1459 Rocket 4.4 05:07:11 10° NNW 05:12:57 42° W 05:18:45 10° SSW
USA 267 4.2 05:10:07 10° S 05:15:03 22° SW 05:20:01 10° WNW
Cosmos 494 Rocket 4.4 05:10:40 10° S 05:15:43 66° ESE 05:20:49 10° NNE
Cosmos 1802 Rocket 4.4 05:11:20 10° NNW 05:17:26 47° W 05:23:29 10° SSW
